Lid_Strength_Index
12 12 12 15 15 14 15 14 16 15 14 12 13 14 13 12 12 12 13 13 13 13 14 15 15 15 15 15 16 15 16 17 16 16 16 16 16 16 16 16 16 16 16 16
15 13 13 14 12 14 14 14 14 14 14 11 11 12 13 12 12 13 13 13 13 13 14 14 15 15 15 15 16 15 16 16 16 16 16 16 16 16 16 16 16 16 16 16
17 14 14 17 14 13 13 13 13 16 13 11 11 13 13 12 12 13 13 12 13 13 13 13 14 14 15 15 15 16 16 16 17 16 16 16 16 16 16 17 16 16 16 16
17 15 21 14 11 11 12 11 11 12 12 13 12 12 12 11 12 12 13 13 12 12 12 13 13 14 14 15 16 16 16 16 17 16 16 17 17 17 17 16 16 16 16 15
18 18 15 14 17 14 14 13 10 11 11 14 14 13 14 12 11 12 12 11 11 12 12 12 13 13 14 15 16 16 16 16 16 16 17 16 17 17 17 16 16 16 16 16
16 19 20 17 17 14 12 16 13 11 11 16 14 15 14 13 13 12 12 13 13 13 14 13 14 14 14 15 15 16 16 15 15 16 16 16 16 17 16 17 15 15 15 16
16 18 16 18 19 15 17 17 18 16 15 15 14 13 13 14 14 14 14 14 15 14 14 15 15 15 16 16 15 16 16 16 16 16 15 15 16 17 16 17 16 17 17 18
15 18 19 17 18 15 16 18 16 16 16 16 16 16 16 16 15 15 15 15 15 16 16 16 16 16 17 16 16 17 17 17 17 17 15 15 15 18 17 17 19 20 21 20
16 16 18 17 17 16 16 16 16 14 15 15 17 16 16 16 16 16 16 16 16 17 17 16 17 16 16 16 17 17 18 18 19 18 17 17 17 18 19 19 18 19 17 17
16 18 18 16 14 15 16 16 16 16 14 15 16 16 17 17 17 17 17 17 18 17 18 18 18 17 18 17 17 18 18 18 18 18 19 19 18 17 18 18 18 17 17 16
20 18 17 16 15 14 14 15 16 16 16 16 16 17 17 17 17 16 16 17 17 17 17 17 18 18 19 18 17 18 18 18 19 19 19 19 19 19 17 18 16 19 19 18
17 16 14 14 13 13 14 15 16 16 17 16 15 16 16 16 16 16 16 18 18 18 18 18 18 19 19 18 17 17 18 18 18 18 19 19 19 20 12 12 11 9 9 13
15 13 13 13 12 13 14 15 15 15 15 16 16 16 16 16 16 17 18 18 17 16 18 18 19 19 21 20 18 18 18 18 17 17 18 18 19 18 20 15 9 9 9 8
13 14 16 16 16 15 14 14 14 15 15 15 15 17 17 17 18 18 17 17 17 17 19 19 19 23 23 22 20 20 21 18 18 19 19 19 19 19 19 19 20 18 12 11
15 15 15 15 15 16 16 17 17 17 17 17 18 17 18 17 17 17 19 20 19 20 22 22 23 25 25 24 21 21 20 21 19 19 20 19 18 19 19 20 20 20 20 16
16 16 16 16 16 17 18 19 17 16 17 17 18 18 17 17 19 22 23 23 21 23 26 24 25 27 26 24 23 23 22 19 20 20 20 20 19 20 20 20 21 21 21 20
16 16 17 17 16 15 16 16 16 16 17 17 18 19 19 21 23 25 26 25 24 25 26 26 28 28 27 25 23 23 22 22 20 21 21 21 21 22 21 21 21 22 22 20
20 18 18 18 17 16 17 18 19 19 20 21 20 20 22 23 23 26 28 27 27 28 28 29 29 28 27 27 24 22 21 22 22 23 24 23 23 21 20 22 24 25 24 22
23 22 21 22 23 21 22 22 23 23 23 23 22 24 25 25 26 27 28 27 28 28 30 30 20 27 27 23 22 22 23 24 26 26 24 22 24 26 26 26 27 28 26 24
25 24 24 25 25 26 25 25 25 25 25 25 26 26 27 28 28 27 29 32 34 31 32 30 27 26 26 23 23 27 27 25 24 24 25 26 27 27 27 26 27 27 29 28
28 27 27 26 27 28 27 26 26 27 28 27 27 29 29 30 29 31 29 29 32 32 30 27 28 28 28 28 26 28 27 27 27 26 29 28 28 28 27 29 29 27 27 26
30 30 29 29 29 29 30 29 28 28 28 28 29 29 29 30 30 28 30 28 30 25 28 28 28 26 27 23 26 27 28 28 28 28 29 29 30 28 28 27 27 27 26 25
32 32 31 31 31 33 31 29 29 28 28 28 27 27 27 26 26 26 27 29 29 27 27 27 24 23 21 27 27 27 27 27 27 27 28 28 27 28 26 26 26 26 27 25
34 33 32 32 29 28 28 29 29 28 28 28 28 27 26 26 27 26 25 25 24 25 26 25 23 18 24 27 27 27 27 28 27 28 28 25 28 28 28 27 26 26 25 24
32 31 29 27 26 28 30 30 29 29 28 27 28 26 25 24 24 25 24 23 21 23 23 21 19 20 27 29 28 28 28 28 28 29 28 28 29 28 27 26 25 26 27 26
29 28 29 28 27 27 28 27 28 29 27 26 25 24 23 23 22 22 22 23 23 23 24 23 24 26 26 27 27 26 25 26 24 25 25 24 24 24 23 23 25 25 24 25
26 24 26 26 25 25 27 27 29 30 28 28 26 24 24 23 22 22 22 23 22 23 23 25 24 24 26 26 26 25 24 25 23 24 26 25 22 22 22 22 23 23 22 22